This is the latest recevied weather packets stored in our database for station/object KC3ROS. If no packets are shown the sender has not sent any weather packets the latest 10 day(s).
| Time | Temp. | Humidity | Pressure | Rain* | Wind** | Luminosity | Snow |
|---|---|---|---|---|---|---|---|
| 1777474542 | 13.33° C | 99% | 1008 hPa | 0 mm | - | 78 W/m² | - |
| 1777474239 | 12.78° C | 99% | 1008 hPa | 0 mm | - | 104 W/m² | - |
| 1777473936 | 12.78° C | 99% | 1008.1 hPa | 0 mm | - | 110 W/m² | - |
| 1777473634 | 12.78° C | 99% | 1008.1 hPa | 0 mm | - | 109 W/m² | - |
| 1777473324 | 12.78° C | 99% | 1008.2 hPa | 0 mm | - | 89 W/m² | - |
| 1777473020 | 12.78° C | 99% | 1008 hPa | 0 mm | - | 63 W/m² | - |
| 1777472717 | 12.78° C | 99% | 1008.4 hPa | 0 mm | - | 68 W/m² | - |
| 1777472413 | 12.22° C | 99% | 1008.1 hPa | 0 mm | - | 68 W/m² | - |
| 1777472111 | 12.78° C | 99% | 1008.2 hPa | 0 mm | - | 44 W/m² | - |
| 1777471806 | 12.22° C | 99% | 1007.9 hPa | 0 mm | - | 36 W/m² | - |
| 1777471503 | 12.22° C | 99% | 1008.2 hPa | 0 mm | - | 34 W/m² | - |
| 1777471199 | 12.22° C | 99% | 1008.4 hPa | 0 mm | - | 30 W/m² | - |
| 1777470897 | 12.22° C | 99% | 1008.6 hPa | 0 mm | - | 36 W/m² | - |
| 1777470594 | 12.22° C | 99% | 1008.7 hPa | 0 mm | - | 58 W/m² | - |
| 1777470289 | 12.22° C | 99% | 1008.4 hPa | 0 mm | - | 59 W/m² | - |
| 1777469986 | 12.22° C | 99% | 1008.8 hPa | 0 mm | - | 60 W/m² | - |
| 1777469682 | 12.22° C | 99% | 1008.7 hPa | 0 mm | - | 58 W/m² | - |
| 1777469378 | 12.22° C | 99% | 1008.7 hPa | 0 mm | - | 75 W/m² | - |
| 1777469073 | 12.22° C | 99% | 1009 hPa | 1.27 mm | - | 75 W/m² | - |
| 1777468768 | 12.22° C | 99% | 1009.2 hPa | 4.32 mm | - | 45 W/m² | - |
| 1777468464 | 12.22° C | 99% | 1009.2 hPa | 3.56 mm | - | 24 W/m² | - |
| 1777468161 | 12.22° C | 99% | 1009.8 hPa | 1.78 mm | - | 11 W/m² | - |
| 1777467857 | 12.22° C | 99% | 1009.9 hPa | 0.51 mm | - | 10 W/m² | - |
| 1777467552 | 12.22° C | 99% | 1010 hPa | 0 mm | - | 24 W/m² | - |
| 1777467242 | 12.22° C | 99% | 1009.9 hPa | 0 mm | - | 24 W/m² | - |
* Rain latest hour (hover to see other rain measurements)
** Current wind speed in m/s (hover to see current wind gust speed)